Simultaneous Nadir Overpasses (SNOs) Predictions

Prediction of SNOs between METOP-B and TERRA Satellite Orbit:

Table of predicted SNOs for the next 14.0 days since TLE Epoch: 1/31/2015
Index Date (METOP-B) Time (METOP-B) Lat,Lon (METOP-B) SZA (METOP-B ) Date (TERRA) Time (TERRA) Lat,Lon (TERRA) SZA (TERRA ) Distance(km) Time Diff (sec)
1 01/31/2015 07:23:52 81.28, 115.64 100.97 01/31/2015 07:24:23 81.28, 115.69 100.99 1.12 31
2 01/31/2015 08:14:32 -81.28, -76.86 79.02 01/31/2015 08:13:50 -81.28, -76.75 79.03 1.84 42
3 02/03/2015 02:58:15 81.28,-178.08 100.15 02/03/2015 02:58:37 81.28,-177.99 100.17 1.62 22
4 02/03/2015 03:48:54 -81.28, -10.58 79.85 02/03/2015 03:48:03 -81.27, -10.40 79.85 3.03 51
5 02/05/2015 22:32:36 81.28,-111.48 99.33 02/05/2015 22:32:49 81.28,-111.44 99.34 0.78 13
6 02/
